TimeMDT,TemperatureF,Dew PointF,Humidity,Sea Level PressureIn,VisibilityMPH,Wind Direction,Wind SpeedMPH,Gust SpeedMPH,PrecipitationIn,Events,Conditions,WindDirDegrees,DateUTC
12:53 AM,64.9,28.0,25,29.95,7.0,SW,5.8,-,N/A,,Clear,220,2013-08-16 06:53:00
1:53 AM,66.9,25.0,21,29.94,7.0,West,6.9,-,N/A,,Clear,270,2013-08-16 07:53:00
2:53 AM,64.9,26.1,23,29.95,7.0,West,9.2,-,N/A,,Clear,270,2013-08-16 08:53:00
3:53 AM,61.0,27.0,27,29.96,7.0,WSW,5.8,-,N/A,,Clear,250,2013-08-16 09:53:00
4:53 AM,60.1,27.0,28,29.97,7.0,WSW,4.6,-,N/A,,Clear,250,2013-08-16 10:53:00
5:53 AM,55.0,28.9,37,30.00,7.0,Calm,Calm,-,N/A,,Clear,0,2013-08-16 11:53:00
6:53 AM,55.9,28.0,34,30.01,6.0,Calm,Calm,-,N/A,,Haze,0,2013-08-16 12:53:00
7:53 AM,60.1,30.9,33,30.01,6.0,Calm,Calm,-,N/A,,Haze,0,2013-08-16 13:53:00
8:53 AM,64.0,35.1,34,30.02,6.0,East,3.5,-,N/A,,Haze,100,2013-08-16 14:53:00
9:53 AM,75.9,37.0,24,30.00,6.0,ESE,4.6,-,N/A,,Haze,110,2013-08-16 15:53:00
10:53 AM,80.1,33.1,18,29.98,8.0,Variable,3.5,-,N/A,,Clear,0,2013-08-16 16:53:00
11:53 AM,84.9,35.1,17,29.96,8.0,East,8.1,-,N/A,,Clear,100,2013-08-16 17:53:00
12:53 PM,89.1,35.1,15,29.93,8.0,NNE,8.1,-,N/A,,Clear,20,2013-08-16 18:53:00
1:53 PM,89.1,35.1,15,29.91,8.0,NNW,10.4,-,N/A,,Clear,330,2013-08-16 19:53:00
2:53 PM,93.0,28.9,10,29.88,9.0,North,9.2,-,N/A,,Clear,10,2013-08-16 20:53:00
3:53 PM,93.0,25.0,9,29.87,9.0,North,8.1,-,N/A,,Clear,360,2013-08-16 21:53:00
4:53 PM,90.0,26.1,10,29.87,8.0,NNE,3.5,-,N/A,,Clear,20,2013-08-16 22:53:00
5:53 PM,90.0,27.0,10,29.87,8.0,SE,3.5,-,N/A,,Clear,130,2013-08-16 23:53:00
6:53 PM,87.1,28.0,12,29.87,7.0,Calm,Calm,-,N/A,,Clear,0,2013-08-17 00:53:00
7:53 PM,84.0,25.0,12,29.88,7.0,Calm,Calm,-,N/A,,Clear,0,2013-08-17 01:53:00
8:53 PM,79.0,19.9,11,29.89,8.0,WSW,11.5,-,N/A,,Clear,240,2013-08-17 02:53:00
9:53 PM,75.9,19.9,12,29.88,8.0,South,5.8,-,N/A,,Clear,190,2013-08-17 03:53:00
10:53 PM,78.1,17.1,10,29.87,8.0,SW,13.8,-,N/A,,Clear,230,2013-08-17 04:53:00
11:53 PM,79.0,16.0,9,29.85,8.0,SW,13.8,-,N/A,,Clear,230,2013-08-17 05:53:00